Wink, TX

12:12 PM CST on February 14, 2016 (GMT -0600)
Winkler County

Weather History for KINK - March, 2013

Change the Weather History Date:

Friday, March 15, 2013

  Actual Average Record
Temperature  
Mean Temperature 66 °F -  
Max Temperature 90 °F 71 °F 96 °F (2007)
Min Temperature 44 °F 39 °F 25 °F (1964)
Cooling Degree Days 2    
Growing Degree Days 16 (Base 50)    
Moisture  
Dew Point 25 °F    
Average Humidity 29    
Maximum Humidity 65    
Minimum Humidity 5    
Precipitation  
Precipitation 0.00 in - - ()
Sea Level Pressure  
Sea Level Pressure 29.93 in    
Wind  
Wind Speed 8 mph (South)    
Max Wind Speed 14 mph    
Max Gust Speed 23 mph    
Visibility 10 miles    
Events      
Averages and records for this station are not official NWS values.
T = Trace of Precipitation, MM = Missing Value Source: NWS Daily Summary

Daily Weather History Graph

Daily Weather History Graph

Search for Another Location

Airport or City:

Trip Planner

Search our weather history database for the weather conditions in past years. The results will help you decide how hot, cold, wet, or windy it might be!

Date:

Astronomy

Mar. 15, 2013 Rise Set
Actual Time 8:02 AM CDT 8:01 PM CDT
Civil Twilight 7:38 AM CDT 8:25 PM CDT
Nautical Twilight 7:09 AM CDT 8:53 PM CDT
Astronomical Twilight 6:41 AM CDT 9:22 PM CDT
Moon 10:10 AM CDT (3/15) 11:59 PM CDT (3/15)
Length of Visible Light 12h 47m
Length of Day
11h 58m
Waxing Crescent, 15% of the Moon is Illuminated
Mar 15
Waxing Crescent
Mar 19
First Quarter
Mar 27
Full
Apr 2
Last Quarter
Apr 10
New

Hourly Weather History & Observations

Time (CDT) Temp. Dew Point Humidity Pressure Visibility Wind Dir Wind Speed Gust Speed Precip Events Conditions
12:53 AM 61.0 °F 35.1 °F 38% 30.06 in 10.0 mi SSE 11.5 mph - N/A   Clear
1:53 AM 55.9 °F 35.1 °F 45% 30.05 in 10.0 mi SE 10.4 mph - N/A   Clear
2:53 AM 55.9 °F 35.1 °F 45% 30.03 in 10.0 mi SE 11.5 mph - N/A   Clear
3:53 AM 54.0 °F 35.1 °F 49% 30.01 in 10.0 mi ESE 10.4 mph - N/A   Clear
4:53 AM 52.0 °F 35.1 °F 53% 30.00 in 10.0 mi SE 8.1 mph - N/A   Clear
5:53 AM 51.1 °F 35.1 °F 54% 30.00 in 10.0 mi SE 8.1 mph - N/A   Clear
6:53 AM 48.0 °F 34.0 °F 58% 30.01 in 10.0 mi SE 4.6 mph - N/A   Clear
7:53 AM 44.1 °F 33.1 °F 65% 30.03 in 10.0 mi Calm Calm - N/A   Clear
8:53 AM 46.0 °F 32.0 °F 58% 30.05 in 10.0 mi Calm Calm - N/A   Clear
9:53 AM 55.9 °F 34.0 °F 44% 30.04 in 10.0 mi Calm Calm - N/A   Clear
10:53 AM 64.9 °F 30.9 °F 28% 30.02 in 10.0 mi SSW 3.5 mph - N/A   Clear
11:53 AM 73.9 °F 21.9 °F 14% 29.99 in 10.0 mi SW 8.1 mph - N/A   Clear
12:53 PM 80.1 °F 19.0 °F 10% 29.96 in 10.0 mi SSW 8.1 mph - N/A   Clear
1:53 PM 82.9 °F 17.1 °F 9% 29.92 in 10.0 mi SSW 9.2 mph - N/A   Clear
2:53 PM 84.9 °F 14.0 °F 7% 29.86 in 10.0 mi Calm Calm - N/A   Clear
3:53 PM 88.0 °F 14.0 °F 6% 29.83 in 10.0 mi SW 11.5 mph 23.0 mph N/A   Clear
4:53 PM 89.1 °F 8.1 °F 5% 29.80 in 10.0 mi WSW 10.4 mph 23.0 mph N/A   Clear
5:53 PM 88.0 °F 9.0 °F 5% 29.78 in 10.0 mi WSW 13.8 mph - N/A   Clear
6:53 PM 88.0 °F 9.0 °F 5% 29.77 in 10.0 mi WSW 13.8 mph 18.4 mph N/A   Clear
7:53 PM 81.0 °F 9.0 °F 6% 29.79 in 10.0 mi SW 6.9 mph - N/A   Clear
8:53 PM 72.0 °F 10.0 °F 9% 29.81 in 9.0 mi SSW 6.9 mph - N/A   Clear
9:53 PM 69.1 °F 25.0 °F 19% 29.81 in 10.0 mi SSE 9.2 mph - N/A   Clear
10:53 PM 64.0 °F 28.9 °F 27% 29.81 in 10.0 mi SE 10.4 mph - N/A   Clear
11:53 PM 62.1 °F 30.9 °F 31% 29.79 in 10.0 mi SE 10.4 mph - N/A   Clear